SPACEBEE-35 (46934 NORAD) Tracking and Keplerian Element Data

This shows tracking and keplerian element data for the satellite.

Feedback or suggestion? Click here.




ElementValue
Catalog46934
NameSPACEBEE-35
Epoch Orbit894
Epoch Day17.9258799
Epoch Year2021
RAAN157.357
Inclination97.3713
Eccentricity0.0017179
Argument of Perigee95.1033
Mean Anonmoly265.2163
Mean Motion15.21734799
Decay Rate4.174E-05
L11 46934U 20085F 21017.92587990 .00004174 00000-0 18660-3 0 9991
L22 46934 97.3713 157.3570 0017179 95.1033 265.2163 15.21734799 8946

Live tracking and technical data element details for SPACEBEE-35 (NORAD 46934). SPACEBEE-35 can be tracked NOW for your location showing map with azimuth and elevation plus other details from your city location.

Track the satellite on the map from your city or location and see movement details for azimuth, elevation, latitude, longitude, range, height, and movement on the map or in text.







IsCatalogInMostPopularTable: catalog: 46934, numindb: 25
Update: records affected: 1



GetName: 46934 SPACEBEE-35

Hit Count: updated at: Tue, 19 Jan 2021 02:20:13 GMT